Satellite-Ground Cal/Val Site Overpasses Predictions

Prediction of Satellite NPP Overpassing Cal/Val Site: Antarctic Dome C

Ground Cal/Val Site Location: Latitude: -75.10, Longitude: 123.35; Satellite-Ground Site NADIR distance within 100 km.

Table of predicted overpasses for the next 14.0 days since TLE Epoch: 10/21/2013
Interval Starting Time Ending Time Minimum Distance Time Minimum Distance (km)
1 10/22/2013 15:02:26 10/22/2013 15:02:49 10/22/2013 15:02:37 63.13
2 10/23/2013 14:43:36 10/23/2013 14:44:02 10/23/2013 14:43:49 46.15
3 10/24/2013 07:45:17 10/24/2013 07:45:38 10/24/2013 07:45:27 68.20
4 10/25/2013 07:26:25 10/25/2013 07:26:52 10/25/2013 07:26:39 39.71
5 10/28/2013 14:49:52 10/28/2013 14:50:21 10/28/2013 14:50:06 10.84
6 10/30/2013 07:32:43 10/30/2013 07:33:12 10/30/2013 07:32:57 3.92
7 11/02/2013 14:56:10 11/02/2013 14:56:39 11/02/2013 14:56:25 25.60
8 11/03/2013 14:37:28 11/03/2013 14:37:44 11/03/2013 14:37:36 81.61


NCC Satellite Cal/Val Overpasses Prediction Service
